Location: Malanoce
(44.2500°N, 7.4667°E)
Time: 19:23:04
(UTC+00:00)

BlueWalker 3 - Pass Details

Date: 20 January 2026
Orbit: 450 x 461 km, 53.2° (Epoch: 11 February)

Event Time Altitude Azimuth Distance (km) Brightness Sun altitude
Rises 17:54:48 0° 208° (SSW) 2,443 6.0 -16.2°
Reaches altitude 10° 17:57:05 10° 197° (SSW) 1,574 4.8 -16.6°
Maximum altitude 18:00:12 29° 135° (SE) 848 2.8 -17.1°
Enters shadow 18:00:19 29° 131° (SE) 849 2.7 -17.1°
